Weather History for Pompano Beach, FL

Change the Weather History Date:

Tuesday, January 8, 2013

  Actual Average Record
Temperature  
Mean Temperature 77 °F -  
Max Temperature 81 °F 77 °F 88 °F (1973)
Min Temperature 73 °F 59 °F 36 °F (1970)
Cooling Degree Days 12    
Growing Degree Days 27 (Base 50)    
Moisture  
Dew Point 72 °F    
Average Humidity 88    
Maximum Humidity 94    
Minimum Humidity 76    
Precipitation  
Precipitation 0.19 in - - ()
Sea Level Pressure  
Sea Level Pressure 30.14 in    
Wind  
Wind Speed 10 mph (ESE)    
Max Wind Speed 16 mph    
Max Gust Speed 22 mph    
Visibility 10 miles    
Events Rain    
Averages and records for this station are not official NWS values.
T = Trace of Precipitation, MM = Missing Value Source: NWS Daily Summary

Daily Weather History Graph

Daily Weather History Graph

Search for Another Location

Airport:

Trip Planner

Search our weather history database for the weather conditions in past years. The results will help you decide how hot, cold, wet, or windy it might be!

Date:

Astronomy

Jan. 08, 2013 Rise Set
Actual Time 7:09 AM EST 5:45 PM EST
Civil Twilight 6:44 AM EST 6:10 PM EST
Nautical Twilight 6:15 AM EST 6:38 PM EST
Astronomical Twilight 5:47 AM EST 7:06 PM EST
Moon 3:42 AM EST (1/8) 2:45 PM EST (1/8)
Length of Visible Light 11h 25m
Length of Day
10h 35m
Waning Crescent, 14% of the Moon is Illuminated
Jan 8
Waning Crescent
Jan 11
New
Jan 18
First Quarter
Jan 26
Full
Feb 3
Last Quarter

Hourly Weather History & Observations

Time (EST) Temp. Heat Index Dew Point Humidity Pressure Visibility Wind Dir Wind Speed Gust Speed Precip Events Conditions
12:03 AM 73.4 °F - 71.6 °F 94% 30.11 in 10.0 mi East 8.1 mph - N/A   Overcast
12:13 AM 73.4 °F - 71.6 °F 94% 30.11 in 10.0 mi East 6.9 mph - N/A   Overcast
12:53 AM 73.9 °F - 71.1 °F 91% 30.11 in 10.0 mi East 6.9 mph - N/A   Scattered Clouds
1:53 AM 73.9 °F - 71.1 °F 91% 30.10 in 10.0 mi East 8.1 mph - N/A   Partly Cloudy
2:53 AM 73.9 °F - 72.0 °F 93% 30.09 in 10.0 mi ESE 8.1 mph - 0.02 in   Scattered Clouds
3:53 AM 73.9 °F - 72.0 °F 93% 30.08 in 10.0 mi East 5.8 mph - N/A   Mostly Cloudy
4:01 AM 73.4 °F - 71.6 °F 94% 30.08 in 2.5 mi East 13.8 mph 19.6 mph 0.10 in Rain Heavy Rain
4:14 AM 73.4 °F - 71.6 °F 94% 30.08 in 6.0 mi East 10.4 mph - 0.13 in Rain Light Rain
4:25 AM 73.4 °F - 71.6 °F 94% 30.08 in 10.0 mi ESE 6.9 mph - 0.13 in   Overcast
4:53 AM 73.9 °F - 71.1 °F 91% 30.09 in 10.0 mi ESE 9.2 mph 17.3 mph 0.13 in   Mostly Cloudy
5:53 AM 73.9 °F - 71.1 °F 91% 30.12 in 10.0 mi ESE 9.2 mph - N/A   Scattered Clouds
6:53 AM 73.9 °F - 71.1 °F 91% 30.14 in 10.0 mi ESE 8.1 mph - N/A   Mostly Cloudy
7:53 AM 75.0 °F - 72.0 °F 90% 30.16 in 10.0 mi ESE 8.1 mph - N/A   Clear
8:53 AM 77.0 °F - 72.0 °F 84% 30.19 in 10.0 mi ESE 12.7 mph - 0.01 in   Partly Cloudy
9:53 AM 78.1 °F - 72.0 °F 81% 30.21 in 10.0 mi ESE 15.0 mph - N/A   Clear
10:53 AM 79.0 °F - 72.0 °F 79% 30.20 in 10.0 mi SE 12.7 mph - N/A   Clear
11:53 AM 79.0 °F - 73.0 °F 82% 30.18 in 10.0 mi ESE 10.4 mph - N/A   Clear
12:53 PM 81.0 °F 85.8 °F 73.0 °F 77% 30.17 in 10.0 mi SE 11.5 mph - N/A   Clear
1:53 PM 80.1 °F 83.8 °F 72.0 °F 76% 30.15 in 10.0 mi SE 16.1 mph 20.7 mph N/A   Partly Cloudy
2:53 PM 80.1 °F 83.8 °F 72.0 °F 76% 30.14 in 10.0 mi ESE 11.5 mph - N/A   Clear
3:53 PM 79.0 °F - 72.0 °F 79% 30.14 in 10.0 mi ESE 11.5 mph - N/A   Scattered Clouds
4:12 PM 78.8 °F - 71.6 °F 78% 30.15 in 10.0 mi ESE 11.5 mph - N/A   Mostly Cloudy
4:35 PM 78.8 °F - 73.4 °F 83% 30.15 in 10.0 mi ESE 12.7 mph - N/A   Scattered Clouds
4:53 PM 77.0 °F - 73.0 °F 88% 30.15 in 10.0 mi ESE 12.7 mph - N/A   Scattered Clouds
5:53 PM 75.9 °F - 73.0 °F 91% 30.17 in 9.0 mi East 11.5 mph - N/A   Partly Cloudy
6:53 PM 75.9 °F - 73.0 °F 91% 30.17 in 10.0 mi East 13.8 mph - N/A   Scattered Clouds
7:53 PM 75.9 °F - 73.0 °F 91% 30.17 in 10.0 mi East 12.7 mph - N/A   Mostly Cloudy
8:53 PM 75.9 °F - 73.0 °F 91% 30.18 in 10.0 mi East 16.1 mph - N/A   Partly Cloudy
9:53 PM 75.9 °F - 73.9 °F 94% 30.17 in 10.0 mi ESE 13.8 mph 21.9 mph 0.00 in   Scattered Clouds
10:53 PM 75.9 °F - 72.0 °F 87% 30.18 in 10.0 mi ESE 13.8 mph - 0.03 in   Mostly Cloudy